Time,TemperatureF,DewpointF,PressureIn,WindDirection,WindDirectionDegrees,WindSpeedMPH,WindSpeedGustMPH,Humidity,HourlyPrecipIn,Conditions,Clouds,dailyrainin,SoftwareType,DateUTC
2013-03-07 00:06:00,24.4,20.6,30.09,SE,135,5.8,-999.0,85,-99.99,,,0.00,Acu-Link.com,2013-03-07 06:06:00,
2013-03-07 00:22:00,24.1,20.3,30.08,SE,135,4.2,-999.0,85,-99.99,,,0.00,Acu-Link.com,2013-03-07 06:22:00,
2013-03-07 00:37:00,23.7,20.1,30.09,ESE,112,6.8,-999.0,86,-99.99,,,0.00,Acu-Link.com,2013-03-07 06:37:00,
2013-03-07 00:52:00,23.5,19.9,30.09,ESE,112,5.8,-999.0,86,-99.99,,,0.00,Acu-Link.com,2013-03-07 06:52:00,
2013-03-07 01:07:00,23.2,19.6,30.08,ESE,112,7.3,-999.0,86,-99.99,,,0.00,Acu-Link.com,2013-03-07 07:07:00,
2013-03-07 01:22:00,23.2,19.6,30.08,ESE,112,6.8,-999.0,86,-99.99,,,0.00,Acu-Link.com,2013-03-07 07:22:00,
2013-03-07 01:37:00,22.5,19.2,30.08,ESE,112,6.8,-999.0,87,-99.99,,,0.00,Acu-Link.com,2013-03-07 07:37:00,
2013-03-07 01:52:00,23.0,19.4,30.07,ESE,112,8.9,-999.0,86,-99.99,,,0.00,Acu-Link.com,2013-03-07 07:52:00,
2013-03-07 02:08:00,23.2,19.6,30.08,ESE,112,6.8,-999.0,86,-99.99,,,0.00,Acu-Link.com,2013-03-07 08:08:00,
2013-03-07 02:23:00,23.2,19.6,30.06,ESE,112,8.9,-999.0,86,-99.99,,,0.00,Acu-Link.com,2013-03-07 08:23:00,
2013-03-07 02:38:00,23.0,19.4,30.07,ESE,112,6.8,-999.0,86,-99.99,,,0.00,Acu-Link.com,2013-03-07 08:38:00,
2013-03-07 02:54:00,22.8,19.3,30.07,ESE,112,7.3,-999.0,86,-99.99,,,0.00,Acu-Link.com,2013-03-07 08:54:00,
2013-03-07 03:09:00,22.6,19.1,30.06,ESE,112,6.8,-999.0,86,-99.99,,,0.00,Acu-Link.com,2013-03-07 09:09:00,
2013-03-07 03:24:00,22.1,18.6,30.07,ESE,112,4.7,-999.0,86,-99.99,,,0.00,Acu-Link.com,2013-03-07 09:24:00,
2013-03-07 03:54:00,21.0,18.0,30.05,ESE,112,5.3,-999.0,88,-99.99,,,0.00,Acu-Link.com,2013-03-07 09:54:00,
2013-03-07 04:09:00,21.9,18.6,30.06,ESE,112,6.3,-999.0,87,-99.99,,,0.00,Acu-Link.com,2013-03-07 10:09:00,
2013-03-07 04:25:00,21.7,18.4,30.06,ESE,112,6.3,-999.0,87,-99.99,,,0.00,Acu-Link.com,2013-03-07 10:25:00,
2013-03-07 04:40:00,21.7,18.4,30.05,ESE,112,6.8,-999.0,87,-99.99,,,0.00,Acu-Link.com,2013-03-07 10:40:00,
2013-03-07 04:55:00,21.7,18.4,30.04,ESE,112,7.3,-999.0,87,-99.99,,,0.00,Acu-Link.com,2013-03-07 10:55:00,
2013-03-07 05:10:00,21.4,18.1,30.05,ESE,112,7.8,-999.0,87,-99.99,,,0.00,Acu-Link.com,2013-03-07 11:10:00,
2013-03-07 05:25:00,21.9,18.6,30.05,ESE,112,9.4,-999.0,87,-99.99,,,0.00,Acu-Link.com,2013-03-07 11:25:00,
2013-03-07 05:41:00,22.3,18.8,30.05,ESE,112,9.9,-999.0,86,-99.99,,,0.00,Acu-Link.com,2013-03-07 11:41:00,
2013-03-07 05:56:00,22.3,18.8,30.05,ESE,112,11.4,-999.0,86,-99.99,,,0.00,Acu-Link.com,2013-03-07 11:56:00,
2013-03-07 06:11:00,22.3,18.8,30.05,SE,135,8.9,-999.0,86,-99.99,,,0.00,Acu-Link.com,2013-03-07 12:11:00,
2013-03-07 06:26:00,22.1,18.6,30.06,ESE,112,11.9,-999.0,86,-99.99,,,0.00,Acu-Link.com,2013-03-07 12:26:00,
2013-03-07 07:11:00,22.3,18.8,30.06,ESE,112,9.4,-999.0,86,-99.99,,,0.00,Acu-Link.com,2013-03-07 13:11:00,
2013-03-07 07:26:00,23.0,19.2,30.05,ESE,112,11.4,-999.0,85,-99.99,,,0.00,Acu-Link.com,2013-03-07 13:26:00,
2013-03-07 07:41:00,24.1,20.0,30.06,ESE,112,11.4,-999.0,84,-99.99,,,0.00,Acu-Link.com,2013-03-07 13:41:00,
2013-03-07 07:56:00,25.5,21.1,30.06,ESE,112,13.0,-999.0,83,-99.99,,,0.00,Acu-Link.com,2013-03-07 13:56:00,
2013-03-07 08:12:00,26.2,21.2,30.06,ESE,112,10.9,-999.0,81,-99.99,,,0.00,Acu-Link.com,2013-03-07 14:12:00,
2013-03-07 08:27:00,26.8,21.5,30.06,ESE,112,11.4,-999.0,80,-99.99,,,0.00,Acu-Link.com,2013-03-07 14:27:00,
2013-03-07 08:42:00,28.4,22.7,30.06,ESE,112,16.6,-999.0,79,-99.99,,,0.00,Acu-Link.com,2013-03-07 14:42:00,
2013-03-07 08:57:00,29.5,23.2,30.06,SE,135,17.6,-999.0,77,-99.99,,,0.00,Acu-Link.com,2013-03-07 14:57:00,
2013-03-07 09:12:00,30.0,23.7,30.07,SE,135,14.5,-999.0,77,-99.99,,,0.00,Acu-Link.com,2013-03-07 15:12:00,
2013-03-07 09:27:00,31.1,24.1,30.06,ESE,112,16.1,-999.0,75,-99.99,,,0.00,Acu-Link.com,2013-03-07 15:27:00,
2013-03-07 09:42:00,32.5,25.2,30.06,ESE,112,15.0,-999.0,74,-99.99,,,0.00,Acu-Link.com,2013-03-07 15:42:00,
2013-03-07 09:57:00,33.4,25.0,30.05,ESE,112,13.0,-999.0,71,-99.99,,,0.00,Acu-Link.com,2013-03-07 15:57:00,
2013-03-07 10:12:00,34.7,25.6,30.04,ESE,112,17.1,-999.0,69,-99.99,,,0.00,Acu-Link.com,2013-03-07 16:12:00,
2013-03-07 10:27:00,36.1,26.6,30.04,ESE,112,12.5,-999.0,68,-99.99,,,0.00,Acu-Link.com,2013-03-07 16:27:00,
2013-03-07 10:42:00,36.9,27.0,30.03,ESE,112,16.6,-999.0,67,-99.99,,,0.00,Acu-Link.com,2013-03-07 16:42:00,
2013-03-07 10:57:00,38.5,27.0,30.04,SE,135,10.9,-999.0,63,-99.99,,,0.00,Acu-Link.com,2013-03-07 16:57:00,
2013-03-07 11:13:00,38.8,27.7,30.02,ESE,112,15.5,-999.0,64,-99.99,,,0.00,Acu-Link.com,2013-03-07 17:13:00,
2013-03-07 11:28:00,40.8,28.4,30.02,ESE,112,16.1,-999.0,61,-99.99,,,0.00,Acu-Link.com,2013-03-07 17:28:00,
2013-03-07 11:43:00,41.9,28.6,30.01,ESE,112,17.6,-999.0,59,-99.99,,,0.00,Acu-Link.com,2013-03-07 17:43:00,
2013-03-07 11:58:00,43.3,29.1,30.01,ESE,112,17.1,-999.0,57,-99.99,,,0.00,Acu-Link.com,2013-03-07 17:58:00,
2013-03-07 12:14:00,45.1,29.5,30.00,ESE,112,15.0,-999.0,54,-99.99,,,0.00,Acu-Link.com,2013-03-07 18:14:00,
2013-03-07 12:29:00,46.0,29.8,29.99,ESE,112,17.1,-999.0,53,-99.99,,,0.00,Acu-Link.com,2013-03-07 18:29:00,
2013-03-07 12:44:00,46.9,29.2,29.98,SE,135,13.0,-999.0,50,-99.99,,,0.00,Acu-Link.com,2013-03-07 18:44:00,
2013-03-07 12:59:00,47.5,29.8,29.97,SE,135,13.5,-999.0,50,-99.99,,,0.00,Acu-Link.com,2013-03-07 18:59:00,
2013-03-07 13:14:00,48.9,30.6,29.96,SE,135,13.5,-999.0,49,-99.99,,,0.00,Acu-Link.com,2013-03-07 19:14:00,
2013-03-07 13:29:00,49.8,30.9,29.95,SE,135,13.0,-999.0,48,-99.99,,,0.00,Acu-Link.com,2013-03-07 19:29:00,
2013-03-07 13:44:00,49.8,30.9,29.93,SE,135,11.4,-999.0,48,-99.99,,,0.00,Acu-Link.com,2013-03-07 19:44:00,
2013-03-07 13:59:00,51.1,29.4,29.93,South,180,13.5,-999.0,43,-99.99,,,0.00,Acu-Link.com,2013-03-07 19:59:00,
2013-03-07 14:14:00,52.0,30.2,29.92,SSE,157,15.5,-999.0,43,-99.99,,,0.01,Acu-Link.com,2013-03-07 20:14:00,
2013-03-07 14:29:00,52.7,29.7,29.92,SE,135,12.5,-999.0,41,-99.99,,,0.01,Acu-Link.com,2013-03-07 20:29:00,
2013-03-07 14:44:00,53.4,30.9,29.91,SE,135,11.4,-999.0,42,-99.99,,,0.01,Acu-Link.com,2013-03-07 20:44:00,
2013-03-07 15:15:00,54.1,30.9,29.91,SE,135,11.9,-999.0,41,-99.99,,,0.01,Acu-Link.com,2013-03-07 21:15:00,
2013-03-07 15:45:00,54.1,30.9,29.90,SE,135,11.4,-999.0,41,-99.99,,,0.01,Acu-Link.com,2013-03-07 21:45:00,
2013-03-07 16:00:00,54.0,29.6,29.91,SE,135,16.1,-999.0,39,-99.99,,,0.01,Acu-Link.com,2013-03-07 22:00:00,
2013-03-07 16:15:00,52.9,29.2,29.91,ESE,112,11.9,-999.0,40,-99.99,,,0.01,Acu-Link.com,2013-03-07 22:15:00,
2013-03-07 16:30:00,53.1,30.0,29.91,ESE,112,13.5,-999.0,41,-99.99,,,0.01,Acu-Link.com,2013-03-07 22:30:00,
2013-03-07 16:46:00,52.9,29.8,29.92,SE,135,13.5,-999.0,41,-99.99,,,0.01,Acu-Link.com,2013-03-07 22:46:00,
2013-03-07 17:01:00,52.5,30.1,29.91,ESE,112,16.6,-999.0,42,-99.99,,,0.01,Acu-Link.com,2013-03-07 23:01:00,
2013-03-07 17:16:00,51.3,30.1,29.92,ESE,112,11.9,-999.0,44,-99.99,,,0.01,Acu-Link.com,2013-03-07 23:16:00,
2013-03-07 17:31:00,50.0,30.0,29.93,ESE,112,11.9,-999.0,46,-99.99,,,0.01,Acu-Link.com,2013-03-07 23:31:00,
2013-03-07 17:46:00,47.5,30.3,29.92,ESE,112,7.8,-999.0,51,-99.99,,,0.01,Acu-Link.com,2013-03-07 23:46:00,
2013-03-07 18:02:00,45.9,29.7,29.93,ESE,112,9.4,-999.0,53,-99.99,,,0.01,Acu-Link.com,2013-03-08 00:02:00,
2013-03-07 18:17:00,44.8,29.6,29.93,ESE,112,10.9,-999.0,55,-99.99,,,0.01,Acu-Link.com,2013-03-08 00:17:00,
2013-03-07 18:32:00,43.7,29.0,29.93,ESE,112,11.9,-999.0,56,-99.99,,,0.01,Acu-Link.com,2013-03-08 00:32:00,
2013-03-07 18:48:00,42.3,29.0,29.93,ESE,112,9.9,-999.0,59,-99.99,,,0.01,Acu-Link.com,2013-03-08 00:48:00,
2013-03-07 19:03:00,41.4,28.6,29.94,ESE,112,10.4,-999.0,60,-99.99,,,0.01,Acu-Link.com,2013-03-08 01:03:00,
2013-03-07 19:18:00,39.9,28.3,29.95,ESE,112,7.8,-999.0,63,-99.99,,,0.01,Acu-Link.com,2013-03-08 01:18:00,
2013-03-07 19:33:00,37.6,27.3,29.96,ESE,112,4.7,-999.0,66,-99.99,,,0.01,Acu-Link.com,2013-03-08 01:33:00,
2013-03-07 19:48:00,37.4,27.8,29.96,ESE,112,7.3,-999.0,68,-99.99,,,0.01,Acu-Link.com,2013-03-08 01:48:00,
2013-03-07 20:03:00,37.4,28.2,29.96,SE,135,10.4,-999.0,69,-99.99,,,0.01,Acu-Link.com,2013-03-08 02:03:00,
2013-03-07 20:19:00,36.7,28.2,29.96,ESE,112,8.9,-999.0,71,-99.99,,,0.01,Acu-Link.com,2013-03-08 02:19:00,
2013-03-07 20:34:00,36.1,27.6,29.96,ESE,112,9.4,-999.0,71,-99.99,,,0.01,Acu-Link.com,2013-03-08 02:34:00,
2013-03-07 20:49:00,35.8,27.7,29.97,ESE,112,11.4,-999.0,72,-99.99,,,0.01,Acu-Link.com,2013-03-08 02:49:00,
2013-03-07 21:04:00,35.1,27.7,29.97,ESE,112,12.5,-999.0,74,-99.99,,,0.01,Acu-Link.com,2013-03-08 03:04:00,
2013-03-07 21:34:00,33.6,26.9,29.98,ESE,112,9.9,-999.0,76,-99.99,,,0.01,Acu-Link.com,2013-03-08 03:34:00,
2013-03-07 21:49:00,33.4,26.7,29.98,ESE,112,13.0,-999.0,76,-99.99,,,0.01,Acu-Link.com,2013-03-08 03:49:00,
2013-03-07 22:04:00,32.5,26.1,29.99,ESE,112,8.9,-999.0,77,-99.99,,,0.01,Acu-Link.com,2013-03-08 04:04:00,
2013-03-07 22:19:00,32.0,25.9,29.99,ESE,112,8.3,-999.0,78,-99.99,,,0.01,Acu-Link.com,2013-03-08 04:19:00,
2013-03-07 22:34:00,31.3,25.9,30.00,ESE,112,6.8,-999.0,80,-99.99,,,0.01,Acu-Link.com,2013-03-08 04:34:00,
2013-03-07 22:50:00,30.6,25.5,30.00,East,90,6.3,-999.0,81,-99.99,,,0.01,Acu-Link.com,2013-03-08 04:50:00,
2013-03-07 23:05:00,30.7,25.6,30.00,ESE,112,6.8,-999.0,81,-99.99,,,0.01,Acu-Link.com,2013-03-08 05:05:00,
2013-03-07 23:20:00,30.7,25.6,30.00,ESE,112,4.7,-999.0,81,-99.99,,,0.01,Acu-Link.com,2013-03-08 05:20:00,
2013-03-07 23:35:00,29.8,25.0,30.01,ESE,112,6.8,-999.0,82,-99.99,,,0.01,Acu-Link.com,2013-03-08 05:35:00,
2013-03-07 23:50:00,29.7,24.9,30.00,East,90,6.3,-999.0,82,-99.99,,,0.01,Acu-Link.com,2013-03-08 05:50:00,